Regional Weather Roundup
Issued by NWS

Home | Current Version | Previous Version | Graphics & Text | Print | Product List | Glossary On
Versions: 1 2 3 4 5 6 7 8 9 10 11 12 13 14 15 16 17 18 19 20 21 22 23 24 25 26 27 28 29 30 31 32 33 34 35 36 37 38 39 40 41 42 43 44 45 46 47 48 49 50
000
ASUS43 KMPX 281610
RWRMN
WEATHER ROUNDUP FOR MINNESOTA
NATIONAL WEATHER SERVICE TWIN CITIES/CHANHASSEN MN
1000 AM CST FRI NOV 28 2014


NOTE: "FAIR" INDICATES FEW OR NO CLOUDS BELOW 12,000 FEET WITH NO
SIGNIFICANT WEATHER AND/OR OBSTRUCTIONS TO VISIBILITY. N/A MEANS
CURRENT SKY AND/OR WEATHER CONDITIONS ARE NOT AVAILABLE.

MNZ060>063-068>070-281700-
   Twin Cities Metro

CITY           SKY/WX    TMP DP  RH WIND       PRES   REMARKS
TWIN CITIES    CLOUDY    16   9  74 E9        30.00R WCI   4
ST PAUL        CLOUDY    17  10  74 E5        30.02R WCI  10
CRYSTAL        CLOUDY    18   9  68 SE9       29.97F WCI   7
LAKEVILLE      MOSUNNY   16   9  73 SE8       29.95F WCI   5
EDEN PRAIRIE   CLOUDY    17  10  74 E7        29.98R WCI   8
SOUTH ST PAUL  CLOUDY    18  10  72 CALM      30.00S
LAKE ELMO      CLOUDY    18  12  79 E8        30.01S WCI   7
$$
MNZ001>005-007-008-013>017-022>024-027-028-281700-
   Northwest Minnesota

CITY           SKY/WX    TMP DP  RH WIND       PRES   REMARKS
BEMIDJI        LGT SNOW  10   6  84 E8        29.92F WCI  -3
HALLOCK        LGT SNOW  12   9  85 E7        29.96F WCI   2
ROSEAU         SUNNY     10   3  72 E6        29.97F WCI   1
WARROAD        MOSUNNY    9   3  78 E6        29.98S WCI  -1
THIEF RVR FALL CLOUDY    10   7  85 SE9       29.94R WCI  -2
CROOKSTON      FLURRIES  14   9  79 SE7       29.95F WCI   4
FOSSTON        CLOUDY    10   5  79 SE8       29.92F WCI  -1
DETROIT LAKES  MOSUNNY   12   9  85 SE10      29.90F WCI  -1
MOORHEAD       CLOUDY    14  10  85 E8        29.93S WCI   3
PARK RAPIDS    LGT SNOW  10   5  80 SE12      29.90F WCI  -5
MAHNOMEN       CLOUDY    11   5  75 SE9       29.91F WCI  -2
$$
MNZ006-009>011-018-025>026-281700-
   North Central Minnesota

CITY           SKY/WX    TMP DP  RH WIND       PRES   REMARKS
BAUDETTE       PTSUNNY    8   1  73 SE5       29.97F WCI   0
FLAG ISLAND    MOSUNNY    7   0  72 E5        29.98F WCI  -2
INTL FALLS     CLOUDY     9   1  70 SE7       29.98F WCI  -2
WASKISH        FLURRIES  10   7  85 CALM      29.97S
BIG FORK       CLOUDY    10   5  79 SE3       29.97F
LONGVILLE      FLURRIES  10   7  85 SE6       29.94F WCI   1
GRAND RAPIDS   CLOUDY     9   3  78 SE7       29.95F WCI  -3
CRANE LAKE     FLURRIES   9   3  78 CALM      30.03F
ORR            CLOUDY     9   1  72 CALM      29.96F
COOK           FLURRIES   9   3  78 E3        29.98F
WALKER         LGT SNOW  10   5  80 SE6       29.92F WCI   0
$$
MNZ012-019>021-037-281700-
   Northeast Minnesota

CITY           SKY/WX    TMP DP  RH WIND       PRES   REMARKS
DULUTH         LGT SNOW  12   8  84 SE8       29.98F VSB 3/4 WCI   0
ELY            FLURRIES  10   5  79 SE5       29.99F WCI   2
HIBBING        LGT SNOW  11   4  73 SE7       29.98F WCI   0
EVELETH        LGT SNOW  12   9  85 E3        29.99F
DULUTH HARBOR  CLOUDY    14   9  79 CALM      30.08F
TWO HARBORS    LGT SNOW  16  10  79 E3        30.00F VSB 1
SILVER BAY     LGT SNOW  16  10  79 CALM      30.01F VSB 1
GRAND MARAIS     N/A     20  12  71 NE5       30.09S WCI  13
G MARAIS ARPRT LGT SNOW  12   7  79 CALM      29.99F
$$
MNZ029>031-032-039>041-046>048-054>057-064-281700-
   West Central Minnesota

CITY           SKY/WX    TMP DP  RH WIND       PRES   REMARKS
FERGUS FALLS   CLOUDY    12   3  67 SE9       29.93F WCI   0
WHEATON        PTSUNNY   10   7  85 E13       29.92S WCI  -5
MORRIS         MOSUNNY   14   9  79 E13       29.89S WCI   0
ALEXANDRIA     LGT SNOW  11   6  81 E13       29.89F WCI  -4
ELBOW LAKE     CLOUDY    12   7  79 SE10      29.89F HAZE    WCI  -1
WADENA         FLURRIES   9   5  85 SE12      29.91F WCI  -6
GLENWOOD       CLOUDY    12   9  85 E13       29.90F WCI  -3
APPLETON       PTSUNNY   14   9  79 SE12      29.89F WCI   0
BENSON         PTSUNNY   12   9  85 SE9       29.89F WCI   0
ORTONVILLE     CLOUDY    12   7  79 SE9       29.87F WCI   0
MADISON        MIX PCPN  18  12  79 E12       29.89F WCI   5
WILLMAR        FAIR      16   9  73 E9        29.93F WCI   4
$$
MNZ033>034-036-042>043-049>051-058-059-281700-
   Central Minnesota

CITY           SKY/WX    TMP DP  RH WIND       PRES   REMARKS
ST CLOUD       CLOUDY    14   7  73 E8        29.95F HAZE    WCI   3
SAUK CENTRE    FLURRIES  11   7  84 E9        29.92F WCI  -2
PAYNESVILLE    CLOUDY    11   7  83 NE10      29.93F WCI  -2
AITKIN         FLURRIES  14   7  73 E5        29.95F WCI   6
PINE RIVER     CLOUDY    10   7  85 SE7       29.98S WCI   0
BRAINERD       CLOUDY    11   6  81 VRB5      29.96F WCI   3
STAPLES        CLOUDY     9   5  85 E7        29.93S WCI  -3
LONG PRAIRIE   FLURRIES  10   5  79 E8        29.93S WCI  -1
LITTLE FALLS   LGT SNOW  12   7  79 E5        29.96S WCI   4
LITCHFIELD     CLOUDY    16  10  79 E9        29.94S WCI   4
BUFFALO        CLOUDY    16   9  75 E6        29.98S WCI   7
MAPLE LAKE     CLOUDY    16  11  80 E6        29.97S WCI   8
$$
MNZ037-044-045-052-053-281700-
   East Central Minnesota

CITY           SKY/WX    TMP DP  RH WIND       PRES   REMARKS
PRINCETON      LGT SNOW  14   9  79 CALM      29.98S
MORA             N/A    N/A N/A N/A MISG        N/A
CAMBRIDGE      LGT SNOW  16   7  67 E7        29.97F WCI   6
RUSH CITY      CLOUDY    13   9  81 E5        30.01S WCI   6
MOOSE LAKE     LGT SNOW  12   9  85 E3        29.99F
HINCKLEY       FLURRIES  14   9  79 CALM      30.01F
CLOQUET        LGT SNOW   9   7  92 E6        29.98F WCI  -1
MCGREGOR       CLOUDY    12   9  85 E6        29.98F WCI   3
$$
MNZ071>073-080-081-089-090-097-098-281700-
   Southwest Minnesota

CITY           SKY/WX    TMP DP  RH WIND       PRES   REMARKS
MONTEVIDEO     PTSUNNY   12   9  85 SE10      29.91F WCI  -1
GRANITE FALLS  MIX PCPN  15  10  81 E8        29.91S WCI   3
CANBY          CLOUDY    15  11  85 E3        29.88S
MARSHALL       CLOUDY    14   9  79 SE6       29.87R WCI   5
REDWOOD FALLS  CLOUDY    16  10  77 E6        29.92R WCI   7
OLIVIA         PTSUNNY   16  10  79 E7        29.92R WCI   6
PIPESTONE      CLOUDY    21  19  93 SE7       29.80S WCI  13
WINDOM           N/A     19  16  86 SE8       29.84F WCI   9
WORTHINGTON    CLOUDY    19  18  93 S9        29.83F WCI   9
JACKSON        CLOUDY    19  16  86 SE9       29.85F WCI   9
TRACY          CLOUDY    19  15  84 SE3       29.86S
SLAYTON        CLOUDY    18  16  90 SE5       29.83F WCI  11
$$
MNZ065>067-074>077-082>085-091>093-281700-
   South Central Minnesota

CITY           SKY/WX    TMP DP  RH WIND       PRES   REMARKS
MANKATO        CLOUDY    18   9  68 SE12      29.92S WCI   5
NEW ULM        CLOUDY    16  10  79 SE8       29.91S WCI   5
ST JAMES       CLOUDY    19  16  86 SE9       29.91F WCI   9
FAIRMONT       CLOUDY    18  12  79 S16       29.89F WCI   3
GLENCOE        PTSUNNY   17  11  78 E6        29.95R WCI   8
FARIBAULT      PTSUNNY   18  10  73 SE8       29.95R WCI   7
OWATONNA       PTSUNNY   18  10  73 SE14      29.93S WCI   4
WASECA         CLOUDY    18   9  68 SE10      29.95R WCI   6
ALBERT LEA     CLOUDY    18  12  79 S12       29.92F WCI   5
$$
MNZ078>079-086>088-094>096-281700-
   Southeast Minnesota

CITY           SKY/WX    TMP DP  RH WIND       PRES   REMARKS
ROCHESTER      MOSUNNY   17  10  74 S20       29.94F WCI   1
RED WING       MOSUNNY   21  12  68 SE9       29.99F WCI  11
STANTON        FAIR      20  10  67 SE8       29.96S WCI  10
DODGE CENTER   PTSUNNY   18  12  79 S17       29.92F WCI   2
WINONA         MOSUNNY   21  12  68 SE8       30.04S WCI  12
AUSTIN         PTSUNNY   18  10  73 SE13      29.92F WCI   4
PRESTON        MOSUNNY   17  10  74 S17       29.97S WCI   1
$$
ABBREVIATIONS USED IN REMARKS
   TC - TEMPERATURES IN CELSIUS
  WCI - WIND CHILL INDEX
   HX - HEAT INDEX
  VSB - VISIBILITY
$$


USA.gov is the U.S. government's official web portal to all federal, state and local government web resources and services.